ARIANE 2 DEB, 26728

Orbit data source: Space-Track

ARIANE 2 DEB, 26728 is space debris in HEO originally from a launch on Fri, 27 Jan 1989 UTC launched from the French Guiana (FRGUI). Debris objects in space refer to the collection of defunct objects orbiting the Earth. Examples of debris include non-operational satellites, rocket bodies, and fragments generated from explosions, collisions, or faulty payload assembly.

Loading next visibility...
Identifier
26728, 1989-006F
Orbit
HEO
Country
Flag of FRFR
Related business
Manufacturer
EADS/LV
Mission
Spacecraft
Bus & Motor
Unknown
Mass
Unknown
Launch date (UTC)
1989-01-27 (37 years ago)
Launch vehicle
Unknown
Launch site
French Guiana (FRGUI)
Object type
Payload
Rocket body
Debris
Shape & HBR
Unknown shape, 1.1 m
Radar Cross Section
Large (>1 m²)

Expand to show TLE details & history
Last TLE update: 21 hours ago

TLE from 21 hours ago
0 ARIANE 2 DEB
1 26728U 89006F   25349.63574919  .00003299  00000-0  97201-2 0  9999
2 26728   8.1149 287.0980 7047482  16.2618 357.8524  2.48203808215603
Epoch: 2025-12-15T15:15Z
TLE epoch observation values (Epoch: 2025-12-15T15:15:28.730Z)
Latitude
0.00019°
Longitude
-26.22487°
Altitude
537.988 km
Speed
9.897 km/s
True Right ascension
19h 08m 42s
True Declination
0° 00' 01"
Sunlit
Object was in daylight at epoch
Visualization orbit readout
Latitude
Unknown
Longitude
Unknown
Altitude
Unknown
Speed
Unknown
Apparent Right ascension
Unknown
Apparent Declination
Unknown
Sunlit
N/A
Visualization observer readout
Local Sidereal Time
11:16:33
Azimuth
Unknown
Elevation
Unknown
Doppler factor
Unknown
Orbital elements
Apogee altitude
32,912.396 km
Perigee altitude
426.739 km
Semi-major axis
23,047.705 km
Eccentricity
0.70475
Inclination
8.1149°
RAAN
287.098°
Arg. of periapsis
16.2618°
True anomaly
342.7404°
Mean anomaly
357.8524°
Eccentric anomaly
352.77193°
Mean motion
0.6203 °/min
Orbital period
580.36 mins
BSTAR
0.0097201
Loading maneuver chart data...
Computing Atmospheric mass density...
Loading historical data...
Loading historical data...
Loading historical data...
Loading historical data...
Loading historical data...
Loading historical data...
Loading historical data...

Documentation

Showing up to 5 results
|